Terug naar catalogus

SAMSAT-ION 2

ActiefAmateurradioSSO
NORAD 61784·PAYLOAD·🇷🇺 Russia
Deze satellietnaam is nog niet bevestigd door officiële bronnen.

Gelanceerd Nov 4, 2024 vanaf Vostochny Cosmodrome

Loading…

Volgende Passages (komende 24 uur)

TLE

VersSource: Space-Track

Epoch: Sep 14, 2026, 15:09 UTC

1 61784U 24199BB  26257.63137866  .00061684  00000-0  59047-3 0  9996
2 61784  97.2749 136.0940 0004065 321.8882  38.2091 15.66491408151527

Volg SAMSAT-ION 2 in realtime met AllMySat

Download on the App Store